Theta_e
320 319 318 318 318 319 322 325 326 325 323 321 321 321 322 321 322 322 323 325 325 327 329 327 326 327 326 324 327 330 331 330 329 335 340 338 335 337 337 335 333 334 335 332 329 327 323 319 319 318 319 318 314 311 311 311 310 310 315 323 326 328 329 329 330 330 330 329 324 319 319 322 324 324 325 327 326 323 323 324 325 325 320 316 321 323 321 319 316 313 312 312 311 311 311 310 312
320 319 318 317 317 320 323 324 325 324 321 319 320 321 323 322 322 320 322 324 324 326 328 327 325 325 325 324 325 327 332 331 328 334 337 335 336 337 336 334 332 334 334 329 326 322 320 319 318 318 319 320 316 314 313 312 311 310 311 318 322 325 328 329 331 331 329 328 323 318 319 321 323 325 325 326 326 325 327 326 325 327 323 315 319 322 322 321 319 319 318 317 316 314 313 311 310
319 318 318 320 320 322 323 323 323 321 320 318 319 322 322 322 322 322 323 324 325 327 328 326 324 324 324 325 324 326 332 333 327 330 335 335 336 336 335 334 333 334 333 329 326 321 319 318 318 317 319 321 319 316 315 314 313 312 311 317 320 323 329 330 331 331 329 326 320 317 319 321 324 327 324 322 326 327 328 328 328 328 323 318 321 322 323 323 321 321 321 320 319 317 315 313 312
318 317 318 323 325 324 324 324 324 321 320 318 319 322 321 323 325 325 325 325 326 329 327 326 325 326 327 324 326 329 333 335 330 327 334 335 334 334 332 333 335 335 334 331 327 321 319 318 317 317 318 319 319 317 316 315 315 315 314 317 321 324 329 330 331 331 328 324 318 316 316 318 322 325 323 323 326 327 328 329 330 329 325 324 325 326 325 323 320 319 320 319 319 318 317 316 315
317 316 317 323 327 326 325 325 325 323 320 318 318 321 322 325 326 325 325 326 327 329 326 326 326 325 327 327 328 331 333 336 332 327 333 336 333 331 329 332 335 335 335 333 327 322 320 319 318 317 318 318 318 317 316 316 316 316 316 318 320 324 328 329 330 329 326 318 313 311 312 315 318 320 322 325 326 326 328 329 329 329 328 325 324 324 323 322 321 319 319 318 319 319 319 318 318
316 317 317 321 324 324 325 324 324 323 320 320 320 320 324 324 325 325 325 326 326 328 326 327 325 323 327 329 330 333 334 336 335 332 335 337 331 327 327 331 334 335 336 334 328 322 321 321 320 319 319 319 319 317 317 316 316 315 316 318 319 324 327 328 329 326 319 312 309 308 310 312 314 317 319 323 326 327 328 329 329 329 327 322 319 321 322 322 320 318 318 319 320 320 320 320 321
317 320 321 322 322 322 325 324 323 323 320 320 321 320 324 324 324 324 324 324 324 325 326 327 324 325 328 326 329 334 334 335 336 334 332 334 329 324 328 332 334 335 337 335 328 322 322 322 322 321 321 320 320 318 317 317 316 316 316 316 317 321 324 324 324 319 313 309 309 307 309 309 310 316 318 320 325 327 328 329 328 326 323 320 318 320 321 319 317 318 319 320 321 321 321 321 322
319 322 323 324 324 323 324 324 324 323 319 319 320 320 324 323 324 323 323 323 322 323 325 326 323 324 325 326 331 330 330 336 336 331 329 329 326 325 330 333 333 335 337 336 330 323 322 322 323 323 323 322 321 320 318 317 317 317 317 316 316 317 318 318 317 314 311 309 308 307 309 309 309 315 317 319 323 325 325 325 323 320 319 318 318 318 319 317 316 318 318 320 322 322 322 322 322
319 323 323 324 325 324 323 323 324 321 318 319 319 321 324 323 323 323 323 323 322 323 324 324 323 323 324 329 332 328 328 334 333 330 330 326 324 328 332 334 334 336 336 336 332 325 322 323 324 324 324 323 322 322 320 319 318 317 317 318 317 316 315 315 314 312 310 308 307 308 308 308 311 316 318 318 321 323 322 321 318 317 317 317 317 317 318 317 316 317 318 319 321 322 323 323 322
320 323 323 324 324 323 323 322 323 320 317 318 318 321 323 323 322 322 322 322 321 323 323 322 322 322 324 330 332 332 328 329 330 330 330 324 325 330 334 336 334 336 335 335 335 328 324 323 324 324 324 324 324 323 322 320 319 318 318 318 318 317 316 315 314 312 310 308 307 308 308 309 313 317 319 318 319 319 319 319 317 317 317 317 317 317 317 316 316 316 317 318 320 321 322 323 323
322 321 322 324 322 321 322 322 323 320 318 318 318 320 322 322 322 322 321 321 321 322 322 321 322 321 325 332 334 335 327 326 329 327 328 324 327 332 335 335 332 335 335 335 335 330 326 324 324 324 324 324 324 325 324 322 320 319 318 318 317 317 317 316 315 313 311 309 308 307 308 312 317 319 319 319 318 318 318 318 318 317 317 317 317 316 316 317 316 316 316 317 319 320 322 323 323
325 322 322 324 322 322 323 323 322 320 319 318 318 319 320 322 322 322 321 320 321 322 323 320 322 319 323 332 334 332 323 327 333 328 326 325 328 333 336 334 331 334 335 334 334 329 327 326 325 324 325 324 325 325 325 324 322 320 319 319 318 317 316 315 315 314 313 311 310 309 310 315 319 319 319 319 319 319 319 319 318 317 316 316 316 316 316 316 316 316 315 316 318 319 321 322 323
325 324 323 323 323 324 324 323 322 321 320 319 317 318 319 322 322 322 320 320 321 322 322 320 321 319 324 333 333 329 324 330 335 329 325 325 330 335 336 334 332 334 334 335 333 331 329 326 326 325 325 325 325 325 325 326 324 323 321 320 319 319 317 316 315 314 314 313 312 312 313 317 319 320 319 319 319 320 320 320 319 318 317 315 315 316 315 316 316 316 315 315 316 318 320 321 323
324 324 324 324 323 324 324 323 322 321 320 318 318 318 319 321 321 322 320 320 320 320 321 320 320 318 324 332 332 330 328 332 334 330 326 327 332 335 335 334 334 333 333 335 334 333 332 327 327 326 325 325 325 325 325 326 326 325 323 322 320 320 319 318 316 315 314 314 314 314 314 317 319 320 320 319 320 320 320 320 320 320 319 317 316 315 315 315 315 316 316 315 315 316 318 320 322
322 323 325 325 323 323 324 324 323 321 320 319 318 319 320 320 320 321 319 319 320 320 321 319 319 319 324 328 331 332 330 331 332 329 327 328 333 334 334 334 335 333 331 335 335 335 334 329 330 329 327 325 325 326 325 325 325 326 325 324 322 321 321 320 319 317 315 315 315 316 316 317 318 319 320 320 320 320 320 320 320 321 321 319 318 316 315 314 315 315 315 315 315 316 317 318 320
320 321 325 325 324 324 324 324 324 321 319 319 318 319 319 319 320 319 318 318 319 320 320 319 318 322 329 330 329 330 329 330 330 328 327 329 333 335 335 333 334 334 330 333 335 336 334 332 333 332 330 327 326 327 326 326 324 325 326 325 324 322 322 321 320 320 318 316 315 316 317 317 318 319 320 320 320 321 321 321 321 321 321 321 320 318 316 315 314 314 315 315 315 315 315 316 318
319 321 325 325 323 324 324 323 322 320 319 318 318 319 319 318 319 317 317 318 318 319 319 319 319 321 329 334 331 328 328 329 328 327 327 330 333 334 334 333 334 334 330 331 334 334 334 334 334 334 334 330 329 331 329 329 326 325 325 326 326 325 323 322 321 321 320 318 316 316 317 317 318 319 320 320 321 321 321 322 322 322 321 322 321 321 319 317 315 314 314 315 315 315 314 315 316
320 322 324 323 323 323 323 322 321 320 319 318 318 319 319 319 317 317 317 318 318 317 319 319 319 319 323 333 335 329 325 324 325 326 326 329 332 331 333 334 334 333 331 331 333 334 334 335 334 334 335 333 332 334 332 331 330 327 325 325 326 326 326 324 323 322 322 321 319 317 316 317 318 318 319 320 320 321 321 322 321 321 322 321 321 321 321 319 317 316 314 315 315 315 314 315 315
320 324 323 322 323 322 319 319 318 319 319 318 318 319 318 319 317 317 317 317 317 316 318 318 320 319 320 330 334 329 325 322 322 324 324 327 330 329 332 334 334 333 331 331 332 333 334 334 334 334 335 334 334 334 333 333 332 330 328 326 325 326 326 326 325 323 322 322 321 319 317 316 316 317 319 319 320 320 320 321 322 321 321 321 321 321 321 320 320 318 317 317 316 315 315 314 314
319 321 322 322 322 320 317 317 318 318 319 317 318 318 318 318 317 317 317 317 317 316 317 317 319 319 318 325 329 326 325 322 321 324 323 325 329 329 330 332 333 332 331 330 331 332 333 333 333 334 334 334 334 334 333 333 333 332 330 328 327 326 326 327 327 325 324 323 322 322 321 319 317 316 317 318 318 319 320 320 321 321 321 320 320 320 321 321 320 320 319 319 318 318 318 316 314
319 319 321 321 319 319 317 316 317 318 318 318 318 318 318 318 317 317 317 316 316 315 316 316 318 319 317 319 321 322 323 320 321 324 323 324 328 330 332 332 332 333 332 329 330 331 332 332 333 333 334 334 334 334 333 332 332 332 331 330 329 328 326 326 327 327 326 325 324 323 323 322 321 319 317 316 316 317 318 319 319 319 320 319 319 320 321 321 320 320 320 320 319 320 320 318 316
318 319 320 318 318 317 316 315 316 317 318 318 318 318 318 317 317 316 316 316 316 315 316 316 316 318 318 316 316 317 319 317 320 324 324 322 325 331 334 334 333 333 333 330 329 330 331 332 333 333 333 334 334 333 333 332 332 332 332 331 330 330 328 327 327 327 327 326 325 324 324 323 323 323 321 319 318 318 317 317 317 318 319 319 320 320 320 321 320 321 320 320 320 320 320 318 317
318 319 319 317 317 316 315 315 315 316 317 318 318 318 317 316 316 316 316 316 317 316 316 317 316 317 318 316 315 316 316 315 316 319 321 320 323 332 336 335 333 332 332 330 328 329 330 332 332 332 333 333 333 333 333 332 332 332 332 332 332 330 329 328 328 328 328 327 327 326 326 324 324 324 324 323 323 323 322 319 317 317 317 318 320 320 321 321 321 321 321 321 321 321 320 319 318
317 318 318 316 316 315 315 314 315 316 317 318 317 317 316 315 315 315 316 315 316 316 317 318 317 318 318 317 315 315 315 313 313 314 317 320 321 330 335 336 334 330 329 328 326 327 327 329 331 331 331 332 332 333 332 332 332 332 332 331 332 331 330 328 328 330 329 328 327 327 327 326 325 325 325 324 324 324 325 323 320 318 317 317 318 319 320 321 321 322 322 322 321 321 321 320 320
316 317 317 316 315 314 313 313 314 315 316 317 317 316 316 315 315 315 315 316 316 316 316 317 318 318 320 318 315 315 315 313 313 313 318 324 326 330 334 336 335 332 328 326 325 325 325 326 329 329 329 330 331 332 332 331 331 332 332 332 331 331 330 328 328 330 330 329 328 327 328 327 327 326 326 325 325 325 325 325 323 322 320 319 319 318 319 320 320 321 322 322 322 322 322 321 321
316 316 316 315 314 314 313 314 314 314 315 315 316 316 315 315 315 316 315 316 316 316 315 315 317 318 320 319 316 315 315 315 314 313 315 323 330 331 333 335 336 333 331 328 324 323 325 326 328 328 327 327 329 330 330 330 331 330 331 331 331 330 330 328 327 328 329 329 329 329 328 327 327 328 327 326 326 325 325 325 325 324 324 324 323 321 320 319 320 321 322 323 323 323 323 323 323
317 316 315 314 314 314 314 314 313 314 314 314 316 316 315 314 315 316 316 316 316 316 314 314 315 316 318 317 315 314 315 315 314 314 313 317 327 330 330 332 334 335 333 329 323 321 326 327 327 327 326 326 327 328 328 329 330 329 329 330 330 330 330 328 327 327 327 327 328 329 329 328 327 327 327 327 327 326 326 325 325 325 325 325 325 324 323 322 322 322 323 323 324 324 323 323 323
316 315 315 314 314 314 314 314 314 314 314 314 315 315 314 314 315 316 316 316 315 316 315 314 314 314 317 318 316 314 313 315 314 315 315 314 319 323 326 328 331 334 332 327 322 319 323 326 325 325 325 325 325 326 326 327 327 328 329 328 328 329 329 329 327 326 326 327 327 328 328 328 328 327 327 327 327 327 326 326 326 325 325 325 325 325 325 325 324 324 325 325 325 325 325 324 324
316 315 316 314 314 314 314 314 314 314 315 314 315 316 315 315 315 315 316 316 315 316 315 315 314 314 316 319 319 316 314 315 315 314 315 314 314 316 319 321 323 327 325 321 320 318 319 323 323 323 322 320 321 323 323 323 325 327 327 328 328 327 328 328 327 325 324 323 325 326 326 327 329 329 328 327 328 328 327 327 326 326 326 326 326 325 326 325 325 325 325 325 325 326 325 325 325
315 315 316 316 315 315 315 314 314 314 314 314 315 317 318 316 315 315 316 316 315 315 315 315 315 314 315 318 319 317 316 318 317 314 314 314 314 314 315 316 316 316 316 317 318 317 316 319 320 320 319 317 317 319 320 319 320 322 323 326 328 326 326 327 326 326 323 320 323 325 323 323 324 325 327 327 326 326 327 327 327 327 326 326 326 326 326 326 326 325 325 326 326 326 326 326 325
315 315 316 318 317 315 315 314 313 315 315 313 315 317 318 317 315 315 315 315 315 314 315 316 316 315 315 317 318 316 315 317 316 314 314 314 314 314 314 315 315 314 314 314 314 315 315 316 316 316 316 315 316 317 317 317 317 317 317 321 323 323 324 324 324 325 323 322 322 319 319 323 323 320 323 325 324 324 324 325 325 325 325 325 326 326 325 326 325 325 325 325 325 325 326 326 326
315 315 316 319 318 316 315 314 314 315 314 313 314 316 317 316 315 315 315 315 315 314 315 316 316 316 315 316 317 317 315 315 314 314 314 314 314 314 314 314 314 314 314 313 313 313 314 315 314 314 314 315 315 315 316 317 318 318 316 318 320 320 321 322 323 323 324 324 321 317 322 328 326 320 321 322 323 324 323 322 322 323 324 323 324 325 324 324 324 324 324 324 324 324 325 326 326
315 316 317 318 317 317 316 314 314 314 314 313 313 316 317 316 315 314 315 314 315 315 315 315 316 317 316 316 317 317 316 315 314 314 314 314 314 314 314 314 314 314 314 314 314 313 313 314 314 314 314 314 315 315 315 316 318 319 317 318 319 320 321 322 322 323 324 324 322 323 327 330 327 322 323 323 325 326 325 324 322 322 323 322 323 324 324 324 323 323 323 323 323 323 324 324 324
316 316 317 318 316 316 317 315 314 314 314 313 313 315 316 316 314 314 314 314 314 315 315 316 316 316 317 317 317 317 316 315 314 313 314 314 314 314 314 314 313 314 314 314 313 313 313 314 314 314 313 314 314 314 314 315 316 317 319 321 321 320 319 319 321 323 324 322 322 327 331 329 324 323 327 327 327 328 327 326 324 322 322 323 323 323 324 325 324 323 323 323 323 324 324 324 324
315 317 316 317 316 316 317 316 315 315 315 315 314 314 315 315 315 313 313 314 314 314 315 315 316 316 316 317 317 316 315 315 314 314 314 314 314 314 314 313 314 314 314 314 314 313 314 313 314 314 313 314 314 314 314 315 315 316 320 323 323 321 317 318 321 323 324 322 322 327 330 327 322 324 329 330 330 331 329 328 327 325 324 323 324 324 325 324 324 324 325 325 325 325 325 325 325
315 317 316 316 318 316 317 316 315 315 315 315 315 314 314 314 315 314 313 314 314 314 314 315 316 316 316 316 316 316 315 314 314 314 314 314 314 314 314 314 314 314 314 314 314 314 314 314 314 314 314 314 314 314 314 314 315 316 318 320 321 320 317 317 320 321 322 320 320 323 325 323 320 323 326 329 331 331 331 330 329 328 327 325 325 326 327 326 325 325 325 325 325 325 325 324 324
315 317 315 316 319 316 315 316 314 314 315 315 316 316 315 316 316 316 314 313 314 314 314 315 315 315 316 316 316 315 315 315 314 314 314 314 314 314 314 315 314 314 314 314 314 314 314 314 314 314 314 314 314 314 314 314 314 315 316 316 316 317 317 316 318 319 319 318 317 319 322 324 324 322 322 327 332 331 331 330 328 328 328 327 325 326 328 328 328 327 327 326 325 325 324 324 324
315 317 316 316 319 317 315 316 313 314 316 316 316 316 315 316 317 316 314 313 313 314 314 315 316 316 316 316 316 316 315 315 315 315 315 314 314 314 314 315 314 315 314 314 314 314 314 314 314 315 314 314 315 314 314 314 314 315 315 316 316 316 317 316 317 318 319 319 317 318 322 325 328 325 322 325 331 331 329 327 325 325 326 326 327 328 329 329 329 329 328 327 326 325 324 324 325
316 317 317 318 319 317 315 315 314 313 315 316 317 317 316 316 317 316 315 314 314 315 315 315 316 316 316 316 316 316 315 315 315 315 315 314 314 314 314 314 314 315 315 314 315 314 314 315 314 314 314 314 315 314 314 314 315 315 315 315 316 316 317 317 317 318 320 322 320 318 319 322 325 325 322 323 325 325 324 323 322 322 323 326 329 330 329 329 328 327 328 328 325 323 323 324 325
317 317 316 318 320 317 316 316 315 314 314 316 318 318 318 316 317 317 315 316 316 316 316 315 315 316 316 316 316 316 316 316 316 315 315 315 315 315 314 314 314 314 315 314 315 315 314 315 315 314 314 314 314 314 314 314 314 315 316 316 316 315 316 317 317 318 319 321 320 317 317 317 319 320 321 321 319 319 320 321 320 321 323 326 328 328 328 328 327 326 326 325 323 322 323 324 325
318 319 317 320 320 319 319 317 314 313 315 316 315 316 317 316 316 317 316 316 316 316 317 316 316 316 316 316 316 316 317 316 317 316 315 315 314 315 315 315 315 314 314 314 314 315 315 315 315 314 314 314 314 314 314 314 314 315 316 316 316 315 315 316 316 316 316 317 317 316 317 318 318 319 320 320 319 321 324 324 324 323 322 323 324 325 326 326 325 323 323 323 323 324 325 325 324
316 320 319 320 320 320 320 318 315 315 318 318 315 315 319 319 316 316 315 316 317 316 316 315 316 317 316 316 316 316 317 317 317 317 316 316 315 315 316 315 315 315 315 315 314 314 315 314 314 314 314 314 314 314 314 314 314 314 315 315 315 315 315 315 315 315 315 316 316 316 318 319 319 319 320 320 321 323 324 325 325 324 322 322 323 323 323 323 321 322 324 325 325 325 324 324 323
313 320 323 321 321 323 322 320 319 318 319 319 317 317 320 320 317 317 317 318 318 317 316 316 316 318 317 317 317 316 317 318 319 319 317 317 316 315 316 315 316 316 315 315 315 315 314 315 315 314 315 315 314 314 314 314 314 314 314 314 314 315 315 315 315 315 315 316 316 316 318 318 318 319 320 319 319 320 320 321 322 322 322 322 322 322 321 319 318 319 322 325 325 324 323 322 320
316 323 326 322 323 326 324 322 321 319 319 318 317 317 318 319 319 319 320 319 319 319 319 318 316 317 318 317 317 315 316 317 317 318 317 317 316 315 315 315 316 316 316 315 315 315 315 315 315 315 315 315 315 314 314 314 315 314 315 315 315 315 315 315 315 316 316 316 316 316 317 317 318 318 318 318 318 318 318 319 319 320 320 320 320 320 319 318 317 317 319 321 322 322 321 319 318
321 325 324 323 324 326 324 323 320 318 319 319 319 318 318 320 320 319 320 318 318 318 319 318 316 316 316 315 316 316 316 316 315 316 316 316 316 316 315 315 315 315 315 315 315 314 315 315 315 314 315 315 315 315 315 314 314 315 315 315 315 315 315 315 315 316 316 316 316 316 316 316 317 317 317 317 317 317 317 317 317 318 318 319 319 318 318 318 318 318 319 319 319 318 318 318 317
320 321 323 323 325 325 322 322 321 318 319 321 322 319 317 320 320 318 319 318 319 319 317 317 315 315 316 315 316 316 316 316 316 315 315 315 315 315 315 315 315 315 315 315 315 314 314 314 314 314 314 314 315 315 314 314 315 315 315 315 315 315 315 316 316 316 316 316 316 316 316 316 316 316 315 316 316 316 316 315 316 316 316 316 316 316 316 317 317 318 317 317 316 316 316 316 315
318 321 323 322 321 321 320 321 319 318 320 321 322 320 317 319 321 318 319 319 320 319 317 319 318 316 316 316 316 316 315 315 314 314 313 314 314 314 314 314 314 314 314 314 314 314 313 313 313 313 313 313 314 314 314 315 314 315 315 315 315 315 315 316 316 316 316 316 316 316 316 315 315 315 315 315 315 315 315 315 315 315 314 315 314 315 315 315 315 315 315 315 315 315 314 314 314
320 323 322 319 319 318 318 318 317 319 322 319 319 321 319 318 319 317 318 318 318 317 317 321 320 317 316 316 316 315 314 314 313 313 312 312 313 313 313 313 313 313 314 314 314 314 313 313 313 312 312 312 312 313 314 315 315 315 315 315 315 315 316 316 316 316 316 316 316 316 316 315 315 315 315 315 315 315 314 314 314 314 314 314 314 314 313 313 313 313 313 313 313 313 313 313 312
321 321 319 319 320 318 318 319 319 319 319 315 314 318 320 319 317 316 317 316 316 316 315 318 318 316 316 316 315 315 314 314 313 313 313 313 312 313 312 312 313 313 313 314 314 314 313 314 314 313 312 312 312 313 314 314 314 315 315 315 315 316 316 316 316 316 316 316 316 315 315 315 315 315 315 315 315 314 314 314 314 314 314 314 313 313 313 313 313 313 313 312 312 312 312 312 312
319 319 318 321 320 317 317 319 319 319 317 315 314 316 319 318 316 316 317 314 315 315 313 316 316 315 316 315 314 315 314 314 315 314 314 313 313 313 312 312 312 312 313 313 313 314 314 313 313 313 312 312 311 312 314 314 314 314 315 315 316 316 316 316 316 316 316 315 315 315 315 315 315 315 315 315 315 315 315 315 314 314 314 314 314 313 313 313 313 313 312 312 312 312 312 311 311
319 321 319 320 320 319 318 319 322 323 318 314 313 317 320 320 318 318 315 313 314 314 313 315 314 314 314 314 314 314 314 314 315 314 313 313 313 312 312 312 312 312 312 313 313 313 313 313 312 312 312 311 311 313 314 314 314 314 315 316 316 316 316 316 316 315 315 315 315 315 315 315 315 315 315 315 315 315 315 315 314 314 314 313 313 313 313 313 313 312 312 312 312 312 311 311 311
319 322 321 319 321 324 321 318 321 323 320 316 315 319 322 320 319 317 314 315 315 313 313 313 313 313 312 312 313 313 313 313 314 315 314 313 313 312 312 311 311 312 312 313 313 313 313 312 312 311 311 312 312 313 314 314 314 315 316 316 316 316 316 316 315 315 315 315 315 315 315 315 315 315 315 315 315 315 315 315 314 314 314 313 313 313 313 313 313 313 312 312 311 311 311 311 311
318 319 319 318 320 325 322 316 315 316 318 320 318 319 319 316 317 317 316 318 317 314 314 312 312 313 312 312 313 312 312 313 313 315 314 314 314 312 312 312 311 312 312 313 313 313 313 312 312 311 311 312 312 313 314 314 315 316 316 316 316 316 315 315 315 315 315 315 315 315 315 315 315 315 315 315 315 315 315 315 315 314 313 313 313 313 313 313 312 312 312 311 311 311 311 310 310
318 319 318 317 318 322 320 315 316 315 315 318 318 318 316 314 318 321 316 316 318 318 316 312 311 312 312 312 313 312 312 313 314 315 315 315 315 313 313 312 312 313 313 313 313 313 313 313 312 312 312 313 313 314 315 315 316 316 316 316 316 316 315 315 315 315 315 315 315 315 315 315 315 315 315 315 315 315 315 315 314 314 313 313 313 313 313 312 312 312 311 311 311 311 310 310 310
316 316 317 317 318 320 317 314 318 319 315 316 319 318 317 316 317 318 316 317 319 319 318 317 313 312 312 313 313 313 313 314 314 315 315 316 315 314 313 313 313 314 313 314 314 313 314 314 313 314 314 314 314 315 316 316 316 316 316 316 316 315 315 315 315 315 315 315 315 315 315 315 315 315 315 315 315 315 315 315 314 314 314 313 313 313 313 312 312 311 311 311 311 310 310 310 309
314 314 314 317 318 319 319 316 317 320 317 316 318 318 320 322 318 316 317 318 318 316 319 320 315 312 313 313 313 313 314 314 314 315 316 316 315 314 314 314 314 314 314 314 315 314 315 315 315 314 315 315 315 316 316 316 316 316 316 316 315 315 315 315 315 315 315 315 315 315 315 315 315 315 315 315 315 315 315 314 314 314 314 314 313 313 312 312 312 311 311 310 310 310 309 309 309
314 315 314 315 315 316 319 318 318 319 317 317 316 316 321 325 319 316 315 315 319 319 322 322 315 312 314 313 313 313 314 314 315 316 316 316 315 315 315 315 315 315 315 315 315 316 315 316 316 316 316 316 316 316 316 316 316 316 315 315 315 315 315 315 315 315 315 315 315 315 315 315 315 315 315 315 315 315 314 314 314 314 313 313 313 312 312 311 311 310 310 309 309 309 308 308 308
315 315 314 314 315 315 317 318 319 317 316 318 316 316 323 323 316 316 316 318 322 319 319 319 315 314 315 314 313 314 314 314 315 316 316 316 316 316 316 316 316 316 316 316 316 316 316 316 316 316 316 316 316 316 316 316 316 315 315 315 315 315 315 315 315 315 315 315 315 315 314 315 315 315 315 315 314 314 314 313 313 313 312 312 311 311 311 310 310 310 309 309 309 308 308 308 307
Wind_Speed
4 3 1 1 3 5 5 2 3 3 2 4 2 3 2 5 6 6 6 6 6 5 9 12 10 8 5 6 12 16 16 9 4 2 5 14 20 16 14 15 13 11 11 10 8 7 6 7 8 10 12 12 12 12 13 13 13 12 13 13 14 14 11 9 8 9 11 12 13 13 13 14 14 14 16 16 14 16 17 17 17 16 15 15 16 16 16 15 16 16 16 16 16 15 15 15 14
5 3 2 2 3 3 5 3 2 3 3 4 0 4 4 4 5 7 5 5 7 7 10 11 9 9 8 9 10 13 17 13 11 15 18 22 21 16 16 14 13 12 12 11 9 8 7 7 8 10 13 13 13 13 13 13 12 11 11 12 14 13 11 10 8 9 10 12 13 13 12 13 14 14 16 15 14 16 17 17 17 15 15 15 16 16 16 16 16 16 16 16 17 17 17 18 18
6 3 3 1 5 4 5 2 2 3 3 3 3 5 5 4 5 7 7 11 13 12 11 10 8 7 6 6 8 9 9 11 15 23 24 22 21 17 17 16 12 12 12 11 10 8 7 8 9 11 13 13 13 13 13 14 13 12 12 13 14 13 11 10 9 9 10 12 13 13 13 13 14 14 15 16 15 16 16 16 16 15 15 15 16 16 16 17 17 17 16 17 17 17 18 19 19
6 5 3 1 6 5 3 2 3 4 3 1 4 4 6 6 8 10 13 16 15 12 10 9 6 4 6 5 9 12 11 10 10 19 23 19 20 21 19 18 12 12 12 10 10 9 8 9 10 12 13 14 13 13 13 14 14 14 14 13 13 12 11 11 9 8 10 11 12 12 12 13 13 14 14 16 16 16 16 16 15 15 16 16 16 16 17 17 17 17 16 16 17 17 18 18 19
6 5 4 2 4 3 2 2 3 3 3 1 3 4 6 10 10 11 13 14 13 10 9 7 3 3 7 8 6 8 9 11 9 15 21 16 19 23 21 18 13 13 12 10 11 9 9 9 12 13 14 15 13 13 13 13 14 14 14 13 12 11 11 10 8 7 9 9 10 10 11 12 13 13 13 14 16 16 16 15 14 14 15 15 15 16 16 17 17 17 17 17 17 17 17 17 18
5 3 4 3 5 4 3 2 4 3 3 3 4 4 8 11 12 14 14 12 9 7 7 4 4 6 6 8 8 9 8 10 13 16 19 17 19 24 21 18 15 14 12 9 11 10 9 10 12 14 15 15 14 13 13 13 13 13 13 12 11 10 10 9 7 7 7 8 8 9 10 11 12 12 12 13 15 15 15 14 13 14 12 13 14 15 15 17 17 17 17 17 17 17 17 17 17
6 3 3 3 5 4 2 4 5 2 3 4 5 4 9 12 15 17 13 9 4 4 5 2 6 8 7 7 9 12 11 11 14 16 18 20 22 24 21 18 15 15 13 10 11 11 10 10 12 14 14 15 14 13 13 13 13 12 12 11 10 9 8 7 6 6 6 7 8 8 9 10 11 11 12 13 14 14 14 13 13 12 11 12 14 15 15 16 17 17 17 17 17 17 17 16 16
7 4 3 3 2 2 2 5 5 1 1 4 5 5 13 15 17 15 9 8 4 6 5 3 5 3 4 8 7 9 13 11 13 14 16 22 24 24 21 18 16 16 14 12 12 12 10 11 11 13 13 14 13 13 13 13 13 12 11 11 10 9 7 6 5 6 6 6 7 8 9 10 10 12 12 13 14 13 13 12 12 12 12 13 14 14 15 16 16 16 17 16 17 16 16 16 15
7 5 3 2 2 3 3 5 4 2 3 3 5 8 18 17 15 13 8 9 8 9 9 7 3 1 7 11 10 8 11 10 12 13 16 23 26 24 21 18 17 16 14 12 12 12 11 10 11 12 12 13 13 12 12 12 12 12 12 11 10 10 8 7 7 7 8 8 8 9 10 10 11 12 13 13 13 12 12 11 12 12 13 13 14 15 15 16 16 16 16 16 16 16 16 15 15
6 7 3 1 3 3 4 5 4 3 5 6 5 9 17 14 13 13 9 9 9 10 10 8 2 3 10 12 10 7 8 11 12 13 18 24 27 24 21 19 18 17 14 12 12 12 11 10 10 11 11 12 12 12 12 12 12 11 11 11 10 10 9 9 9 9 9 9 9 11 11 11 12 13 13 13 13 13 13 12 12 12 13 13 14 15 15 15 15 15 15 15 15 15 15 14 14
6 8 4 2 3 4 4 5 3 5 5 6 6 8 13 12 11 11 9 10 10 10 10 8 3 5 9 10 10 6 7 11 12 14 20 25 26 23 21 18 17 16 13 13 13 12 11 10 10 9 10 10 11 11 11 11 11 11 11 11 11 10 10 10 10 10 10 10 10 11 12 13 14 13 13 12 13 14 13 13 13 13 13 13 14 14 14 14 14 14 14 14 14 14 14 13 13
4 6 4 2 4 4 4 5 3 6 6 4 5 6 10 11 8 8 9 10 11 12 10 8 4 7 6 7 9 8 7 12 14 15 21 27 26 23 20 18 18 15 13 13 13 13 11 10 10 9 9 9 9 10 10 11 10 10 10 10 10 10 10 10 10 10 9 10 11 12 13 13 13 13 13 13 13 14 14 14 14 14 13 13 13 13 13 13 13 13 13 13 13 12 12 12 12
4 4 4 3 4 4 5 3 3 6 4 4 6 9 11 10 7 8 11 10 11 9 9 9 6 6 5 8 10 10 10 15 17 16 22 27 24 22 20 18 18 15 15 13 12 12 11 10 10 9 9 8 8 8 9 9 9 9 9 9 10 10 10 10 10 9 9 9 10 11 13 13 12 12 12 12 13 13 13 14 13 13 13 12 11 11 11 12 12 12 12 12 11 11 11 11 11
6 4 2 3 5 5 5 1 4 4 3 4 10 13 12 10 8 8 10 9 7 7 10 10 6 4 5 9 10 12 15 18 19 18 24 27 23 22 19 18 18 17 16 14 11 11 11 11 10 9 8 8 7 7 7 8 8 8 8 8 9 9 9 10 9 9 9 8 9 10 12 12 11 11 11 11 12 12 12 12 12 12 12 11 10 10 10 10 10 11 11 10 10 10 10 10 10
6 7 3 3 4 5 4 1 3 4 3 5 12 17 13 8 8 7 6 5 5 10 14 11 5 2 2 4 9 17 19 19 20 20 25 27 21 19 17 18 19 17 18 15 12 11 10 10 10 9 8 7 7 6 6 6 6 6 6 7 7 8 8 8 9 9 8 8 9 9 10 11 10 9 9 10 10 10 10 10 9 9 10 10 10 9 9 9 9 9 9 9 9 9 8 9 9
7 4 2 2 3 4 2 1 2 3 3 5 13 18 12 6 9 6 6 8 9 11 11 7 6 4 5 7 12 19 20 21 21 20 26 27 21 20 18 18 19 17 18 18 13 12 10 10 10 9 8 8 7 6 6 6 6 5 5 6 6 6 6 7 7 7 8 7 8 8 9 9 9 8 8 8 8 8 8 7 7 7 8 8 9 9 8 8 8 8 8 8 8 7 7 8 8
5 2 2 2 4 3 3 3 2 3 4 6 14 18 10 6 8 5 7 9 9 11 8 5 8 6 8 12 14 17 19 23 22 22 27 26 23 23 19 18 19 17 19 20 16 14 12 11 10 9 8 8 7 7 6 6 6 6 5 4 4 4 5 5 6 6 6 6 7 7 7 7 7 7 6 6 6 6 6 6 5 5 6 6 7 7 7 7 6 6 6 6 6 6 6 6 7
3 1 3 3 4 4 2 4 5 7 6 7 15 18 11 8 10 6 6 7 8 10 9 8 8 7 9 13 14 14 17 21 22 23 28 28 24 24 21 19 19 17 20 21 18 16 15 13 12 10 9 8 8 8 7 7 7 7 6 5 4 4 4 4 4 5 5 5 5 5 6 6 5 6 6 4 4 4 4 4 4 4 4 4 4 5 5 6 5 5 5 5 4 4 4 5 5
5 2 3 4 4 3 3 3 4 7 10 11 14 17 12 11 14 10 6 7 10 8 8 10 8 8 11 15 15 14 16 19 22 24 27 29 24 22 22 21 20 18 19 21 19 18 17 16 14 12 11 10 10 10 9 7 7 7 7 7 6 5 4 4 4 4 4 4 3 4 5 4 4 5 4 4 3 3 2 2 2 2 2 3 2 2 3 4 4 4 4 3 3 2 2 3 3
8 5 2 5 6 1 6 8 8 9 17 15 13 16 12 14 17 13 8 8 10 8 10 13 12 13 14 17 16 15 17 19 21 23 26 28 24 21 21 21 21 18 19 20 20 19 18 18 18 15 13 12 12 12 11 9 8 8 8 8 8 8 7 6 5 5 4 4 3 2 3 2 2 3 2 2 3 2 2 2 2 1 1 1 1 1 1 1 2 2 2 2 2 2 1 2 2
6 6 3 3 5 2 6 8 9 11 18 15 14 13 9 14 16 13 11 7 7 10 13 16 16 17 17 19 18 16 18 19 21 22 24 26 25 21 20 20 20 18 17 18 19 19 19 18 19 18 16 15 14 14 13 11 10 9 9 8 8 10 9 9 8 6 6 5 4 3 3 2 2 2 2 2 2 3 3 3 3 2 2 1 1 1 1 1 1 1 1 2 2 3 3 2 1
2 6 7 4 6 3 5 7 9 9 14 16 14 11 9 13 12 13 14 6 5 11 14 16 18 18 17 19 18 17 19 20 22 24 24 25 25 21 19 19 19 19 18 18 19 19 19 18 18 19 19 18 16 16 14 13 12 10 10 9 9 10 11 11 10 9 8 6 6 5 4 5 3 2 2 2 3 3 2 3 4 4 3 2 2 2 3 2 3 3 2 2 3 3 3 3 3
3 7 9 2 5 3 3 4 9 8 12 14 12 11 12 12 8 13 15 7 6 10 12 13 17 19 17 17 18 17 19 21 23 24 24 24 25 23 20 20 21 22 21 19 19 18 19 19 18 19 21 20 19 18 16 14 14 12 11 11 11 11 11 12 12 11 10 8 9 7 5 6 6 4 4 3 4 3 3 3 5 4 3 3 4 4 4 4 5 4 4 5 5 4 4 4 4
6 6 5 2 5 4 1 3 7 5 8 12 13 13 13 11 7 12 16 9 7 7 10 13 14 17 18 17 17 16 16 20 21 22 23 23 24 24 21 20 21 22 22 20 18 18 19 19 20 19 20 21 20 20 19 16 15 15 14 13 13 14 13 13 12 11 11 10 11 10 8 8 8 7 6 5 4 4 4 4 5 6 5 5 6 5 5 6 7 6 7 7 7 7 6 6 6
8 4 1 4 5 4 1 3 6 4 6 9 12 11 10 11 6 10 16 11 8 6 6 11 12 14 17 18 17 16 15 17 20 21 23 23 23 23 22 21 20 20 21 22 20 19 18 19 20 20 19 21 20 20 20 18 16 16 17 16 15 16 16 15 13 11 12 12 12 11 10 10 10 9 8 7 6 6 5 5 5 6 7 7 7 6 6 7 7 8 8 8 9 9 8 8 8
9 4 3 5 5 5 4 3 4 3 3 7 9 7 6 7 4 6 15 13 11 10 8 10 13 14 16 16 16 16 16 17 19 21 23 23 23 23 24 22 21 20 21 22 22 20 19 19 20 20 20 20 20 20 21 19 16 16 18 17 16 16 16 16 16 14 14 13 12 12 11 11 11 10 10 10 9 9 7 7 7 7 7 7 7 7 7 7 8 8 8 9 10 10 10 11 10
8 7 7 7 5 5 4 4 4 2 2 5 5 5 4 3 3 3 11 15 13 13 11 10 13 16 17 15 15 16 17 17 17 19 22 24 25 25 25 24 23 22 23 24 23 21 20 19 19 20 20 20 20 19 20 20 18 17 17 17 17 17 16 16 17 16 16 15 13 13 13 13 12 11 12 12 11 11 10 8 9 9 9 9 8 8 8 8 9 9 9 10 11 11 12 12 12
9 11 7 5 5 5 4 4 6 3 2 7 4 4 4 2 3 5 10 16 16 16 15 12 12 15 17 16 16 16 17 18 18 20 22 24 25 25 26 26 26 25 25 24 23 21 21 21 19 19 20 20 21 20 19 19 19 18 18 17 17 17 17 16 17 17 17 16 15 15 15 13 13 13 13 15 14 12 12 11 11 12 11 11 10 10 9 9 10 10 11 11 12 13 14 14 13
9 10 5 4 4 3 4 5 7 4 2 8 3 3 1 2 7 13 13 17 17 17 17 16 14 14 16 17 17 18 18 19 20 22 22 21 23 24 25 26 26 26 25 23 22 22 22 22 21 20 19 19 20 20 19 19 20 19 19 18 17 18 18 17 17 17 17 16 15 16 16 14 14 14 14 16 16 14 14 13 13 14 13 14 13 12 11 11 11 12 13 13 13 14 15 16 16
8 6 3 4 3 3 6 7 7 4 3 8 3 1 5 7 16 20 15 18 18 17 16 18 19 17 16 16 17 19 19 20 21 22 21 20 21 21 22 23 24 24 24 24 23 22 22 22 23 21 19 18 17 19 20 19 18 19 19 19 19 18 18 18 18 18 19 17 15 17 16 14 15 15 14 15 16 16 17 16 15 16 16 16 16 15 14 13 13 14 15 14 14 15 16 17 18
6 5 3 4 2 3 6 8 9 4 2 8 4 1 5 5 14 19 17 17 19 19 17 17 19 20 19 18 18 19 20 21 22 22 21 20 20 20 21 22 22 22 23 24 23 22 21 22 22 22 20 18 17 17 18 17 16 16 16 18 19 18 17 17 18 19 19 16 16 17 15 13 13 14 14 14 13 13 15 15 15 16 17 17 17 17 16 15 15 16 16 16 16 16 17 17 19
3 4 4 4 3 3 2 5 10 5 2 8 3 2 4 2 5 15 17 16 17 19 18 18 18 19 21 21 21 21 21 21 21 21 21 21 21 20 20 21 22 22 22 22 21 22 22 21 21 21 20 19 18 16 16 16 15 15 15 16 17 17 17 17 17 18 17 16 16 16 15 15 15 14 15 15 12 10 10 11 12 13 14 15 16 15 15 16 17 18 18 18 18 18 18 18 18
4 4 3 4 5 3 1 2 6 4 4 6 3 2 2 0 5 12 15 16 15 15 16 19 19 18 20 21 22 22 21 22 23 23 23 22 22 22 21 21 22 22 22 21 22 23 22 22 21 20 19 19 18 18 17 17 17 17 16 15 16 17 17 17 16 16 16 17 18 17 17 18 16 14 14 13 12 10 10 11 12 13 13 13 14 14 14 15 17 18 19 19 19 18 19 19 19
4 4 3 5 6 5 4 1 4 5 3 5 5 3 4 2 7 10 14 16 15 14 15 17 18 18 19 19 20 21 22 24 25 25 23 23 24 23 23 23 23 22 22 22 22 23 22 22 21 20 20 19 19 19 18 17 17 17 17 17 17 17 17 18 17 17 18 18 17 17 19 20 16 13 12 12 13 13 12 13 14 14 14 14 14 15 15 16 16 18 19 19 20 19 20 21 21
3 4 2 4 6 6 5 2 6 9 4 4 6 5 8 5 6 10 15 17 17 16 16 15 16 17 18 18 19 20 22 24 25 25 23 23 24 24 24 24 24 24 23 23 23 23 23 23 22 21 21 20 20 20 19 19 18 18 18 19 19 18 18 18 18 18 19 18 17 17 21 22 17 15 14 15 16 16 16 16 17 18 18 16 16 16 16 17 18 18 19 20 20 21 22 23 24
5 7 5 4 4 4 3 2 4 7 4 5 6 7 10 8 6 9 15 18 19 19 17 15 15 17 18 18 19 19 21 23 24 23 23 24 24 24 24 25 25 25 25 25 25 25 24 24 24 23 22 21 21 21 21 21 20 20 20 21 21 21 20 19 20 20 20 19 18 19 22 22 19 17 16 17 19 21 20 20 21 22 21 20 19 19 18 18 20 20 20 21 21 22 23 24 25
3 7 8 7 5 2 1 3 1 3 3 5 7 6 8 9 7 9 17 19 16 17 18 18 18 18 19 19 19 20 21 22 21 21 23 24 24 25 25 25 26 26 27 27 27 26 26 26 25 24 24 23 23 23 23 23 23 22 21 21 21 21 21 20 20 21 21 21 20 20 21 21 20 19 18 18 20 23 23 24 25 25 24 23 22 21 20 21 22 23 23 23 23 24 24 25 25
4 3 6 6 4 2 2 3 2 2 1 4 8 8 9 9 8 9 15 15 14 18 18 19 21 20 20 20 20 21 22 22 21 21 23 24 25 26 26 27 27 28 29 29 29 28 27 27 26 25 25 25 25 25 25 25 24 23 21 21 20 19 20 20 19 19 20 21 21 20 20 21 22 23 21 19 20 22 24 26 26 26 25 24 24 24 24 24 25 26 26 25 25 26 26 27 27
3 1 3 3 2 3 3 3 2 2 1 2 2 5 9 9 8 8 11 13 16 23 23 22 24 22 22 22 22 22 22 22 23 23 25 25 25 24 25 27 29 29 30 30 30 29 29 28 27 27 27 27 26 26 26 25 25 23 21 20 19 19 19 20 19 18 18 19 20 19 19 20 23 25 23 20 21 24 25 26 25 24 24 24 24 25 24 24 24 25 26 27 27 27 27 26 27
2 1 1 2 4 4 1 1 2 1 1 1 4 2 6 6 6 7 13 19 18 21 25 25 25 25 25 24 23 23 23 23 24 25 26 26 26 25 25 27 29 30 31 31 31 31 31 30 29 29 29 29 28 27 26 26 25 23 22 21 21 21 20 20 19 19 19 20 21 20 19 19 19 21 22 21 21 21 21 22 22 23 24 24 24 24 24 25 25 26 27 28 28 27 27 26 26
3 4 2 2 4 5 2 3 3 3 2 1 3 5 5 6 8 7 13 20 19 20 23 24 26 27 25 23 23 23 23 24 24 25 26 27 27 27 26 26 28 30 32 33 33 32 32 32 31 31 31 31 29 28 27 26 26 25 24 23 23 22 21 20 19 19 19 20 22 21 19 18 17 18 20 21 21 19 19 21 22 24 26 26 25 26 27 28 29 28 27 27 26 26 26 25 26
3 5 4 0 2 6 7 5 5 3 2 2 2 1 5 5 10 10 9 11 14 18 20 22 26 27 25 26 26 24 23 23 24 25 26 26 27 27 26 26 27 29 30 32 32 33 33 33 33 32 32 32 31 29 28 27 27 26 24 24 23 22 21 20 19 17 17 18 19 20 20 18 18 18 18 19 18 18 20 22 24 26 26 26 27 28 29 29 28 25 24 25 24 24 24 26 28
3 5 4 3 5 8 9 6 4 3 2 2 3 4 5 3 5 8 8 8 10 12 12 16 22 24 25 29 30 29 27 26 25 25 25 26 27 27 28 28 28 28 28 29 30 32 32 33 33 33 33 33 32 31 29 28 27 25 24 23 22 22 21 20 18 17 17 17 18 19 20 19 19 19 18 18 18 18 19 20 21 22 22 24 25 26 26 26 26 24 24 25 24 25 27 30 31
3 3 1 5 7 7 8 6 4 2 2 2 1 2 2 4 5 4 5 7 6 7 6 11 18 22 26 29 32 33 33 32 31 29 28 28 29 29 29 29 29 29 29 30 32 32 32 33 33 33 33 33 33 32 30 29 27 25 24 23 22 22 21 20 18 18 17 17 17 17 18 19 19 19 18 18 18 18 18 19 20 20 21 22 23 24 26 25 25 26 27 28 29 29 30 29 28
3 2 2 3 5 6 7 6 3 1 3 1 4 2 1 4 5 2 4 5 5 7 8 10 17 25 26 28 29 29 29 31 32 32 32 31 31 31 31 30 30 30 31 32 33 34 35 35 35 36 35 35 34 32 31 30 28 25 24 23 23 22 21 20 19 18 17 16 15 15 15 15 16 17 17 17 18 18 19 19 20 21 21 23 24 25 26 26 26 27 27 28 28 27 26 26 27
4 4 4 5 4 4 4 4 4 3 1 4 6 5 2 5 5 4 3 4 6 7 8 10 17 25 26 25 25 23 23 25 27 29 30 31 32 32 32 32 32 32 32 33 34 35 37 38 38 38 37 37 35 32 31 31 29 26 25 24 23 22 20 19 18 17 16 14 13 13 12 12 13 13 14 15 16 17 19 20 21 21 22 23 24 25 26 27 27 27 26 25 25 25 26 27 27
7 5 5 6 4 4 3 2 4 2 2 4 5 6 5 3 5 5 4 5 7 7 7 5 8 15 19 20 20 19 20 21 23 24 25 27 29 29 30 31 31 31 32 33 34 36 36 37 38 38 38 38 36 33 32 31 30 27 26 24 23 21 19 17 16 15 13 12 11 10 10 10 11 11 12 13 15 16 17 19 21 21 22 22 23 24 26 27 27 26 26 26 26 27 28 28 28
6 4 5 4 3 4 3 2 3 2 3 3 3 1 2 4 5 3 2 3 5 5 5 3 5 9 12 14 15 16 16 17 18 19 20 23 25 26 27 28 28 28 28 30 32 32 32 33 34 36 37 38 37 34 33 32 30 27 25 24 22 20 17 16 15 13 11 9 9 8 8 8 9 10 11 12 13 14 15 17 18 20 21 21 22 23 24 25 25 25 26 26 27 28 28 28 29
2 4 6 4 1 2 0 1 2 3 3 3 2 3 1 5 6 7 8 6 5 5 5 6 9 10 10 10 11 12 12 13 15 17 19 21 23 24 25 26 26 25 25 26 27 27 27 28 29 32 34 36 35 34 33 32 30 26 24 23 20 18 16 15 13 11 9 8 7 6 6 7 8 9 10 11 12 13 14 15 17 18 19 20 21 21 22 23 24 24 24 25 26 26 26 27 28
3 5 6 5 4 2 2 3 2 3 2 3 3 1 2 4 5 10 14 13 10 7 6 7 10 11 9 9 9 9 9 10 12 15 18 20 22 23 24 26 26 23 22 23 24 24 24 25 27 28 30 31 31 32 32 31 27 25 24 21 19 17 15 13 11 10 9 6 5 5 5 7 8 10 12 13 14 15 16 17 18 19 20 21 21 21 22 23 23 24 24 25 25 25 25 25 26
4 4 5 5 5 3 4 4 3 4 1 3 3 1 3 3 3 7 9 8 7 5 6 8 9 9 9 9 9 9 9 10 10 12 14 17 19 20 23 25 25 23 22 21 22 23 23 24 24 25 27 28 29 30 30 27 25 24 22 20 19 17 15 13 12 10 7 5 4 4 6 8 10 11 13 15 16 17 18 19 19 20 20 21 22 22 22 22 23 24 25 25 25 25 25 24 23
3 2 4 3 4 4 3 2 3 4 2 0 2 2 4 4 5 8 5 4 5 7 9 10 12 12 12 12 12 12 12 11 11 12 13 15 16 17 19 21 22 22 21 20 21 22 22 22 22 23 24 24 25 27 26 25 23 23 22 20 19 18 16 14 12 8 6 5 5 6 8 9 11 12 14 16 17 18 20 21 21 20 20 20 20 21 22 22 22 23 23 24 24 24 24 23 22
2 2 3 3 3 6 4 0 0 3 0 2 3 3 5 3 6 10 9 7 6 7 9 11 14 14 14 16 16 15 15 14 13 12 12 13 14 14 16 17 19 19 20 20 20 20 19 19 20 21 22 23 24 25 24 23 23 22 22 21 20 19 17 14 10 8 7 6 7 9 10 11 12 13 15 17 18 21 22 23 21 20 19 18 19 19 20 21 21 21 21 22 22 22 22 22 22
4 3 4 3 2 3 3 1 1 2 2 2 4 5 4 2 4 5 4 7 6 6 7 10 12 13 15 17 16 15 15 15 14 12 11 11 11 13 14 16 18 18 19 19 19 18 18 18 19 19 21 22 23 24 23 23 23 23 23 22 21 19 16 13 11 9 8 9 10 12 11 12 13 15 17 19 21 23 24 23 21 19 18 18 18 18 18 19 19 19 20 20 20 20 19 20 20
3 3 2 3 1 1 1 2 2 2 3 3 3 6 4 4 4 3 2 7 8 7 8 7 9 13 16 15 13 12 13 15 14 11 11 11 12 13 14 16 17 18 18 18 18 19 19 19 20 20 21 21 22 23 24 24 24 24 23 22 21 18 15 13 12 10 10 11 12 12 12 13 14 16 18 20 23 25 24 23 20 18 18 17 17 17 17 17 17 17 17 18 18 17 17 17 17
2 2 2 2 2 3 3 3 3 3 3 4 3 3 4 5 6 5 7 8 8 7 7 7 9 13 15 14 12 12 14 16 14 11 12 12 13 14 15 16 16 17 18 18 19 20 20 21 21 21 22 22 23 24 25 25 25 24 24 22 19 17 15 13 12 12 13 13 13 13 13 14 15 17 20 23 25 26 24 21 19 18 18 17 16 16 15 15 15 14 14 14 14 14 14 15 15
2 2 4 2 1 2 1 2 2 3 3 3 3 3 5 5 5 8 10 9 7 6 4 5 7 9 11 13 13 14 15 15 13 12 13 14 14 15 15 16 17 18 19 19 20 20 21 22 22 22 23 24 25 26 26 26 25 24 23 20 18 16 15 14 13 14 15 14 14 14 14 15 17 18 22 24 25 24 21 19 18 17 16 16 15 14 14 14 13 12 11 11 11 11 12 12 13
5 5 7 7 5 4 2 3 3 3 3 3 3 4 6 5 2 4 7 6 5 5 4 4 4 4 7 10 12 15 15 14 14 14 15 15 16 16 16 17 18 19 19 20 21 22 22 23 22 23 24 25 27 27 26 26 25 23 21 19 17 16 15 15 15 16 16 15 14 14 15 16 18 20 23 24 23 20 18 16 15 15 15 15 15 14 13 13 12 11 11 11 11 11 11 11 11
Wind_Direction
223 223 233 313 313 320 307 293 287 241 209 270 216 128 80 87 110 108 117 130 99 74 76 79 74 63 57 71 89 75 54 53 62 78 134 136 134 134 155 169 163 157 143 127 120 110 93 85 87 89 86 80 82 89 95 97 103 111 114 108 105 101 94 87 73 62 55 50 49 52 65 73 76 80 76 68 65 65 66 67 66 67 63 65 71 71 72 72 71 71 71 73 74 75 77 81 86
216 222 205 309 312 307 298 225 245 260 207 244 124 90 115 120 125 123 143 128 100 114 105 91 79 74 82 88 87 66 54 61 87 104 123 133 135 147 156 156 155 149 135 127 119 107 95 92 97 97 94 87 84 87 93 96 100 104 108 110 108 103 97 88 75 63 57 51 50 53 65 78 81 81 81 77 69 65 68 66 64 67 60 60 70 72 72 70 70 71 72 74 74 75 76 80 85
207 217 199 309 312 275 287 270 244 276 238 219 89 100 136 135 130 114 101 99 108 121 113 105 94 76 95 107 68 69 81 75 97 117 127 137 138 148 151 144 145 140 134 129 119 109 98 98 101 101 99 92 87 88 90 92 94 97 102 107 108 106 102 91 79 69 61 52 49 54 68 83 84 78 85 88 79 71 71 69 66 66 60 63 70 71 71 70 71 73 73 74 74 75 76 79 84
203 211 196 294 305 262 262 256 221 263 274 225 103 149 150 113 102 92 92 102 118 125 122 126 107 52 49 78 76 88 103 84 108 134 136 147 146 147 149 139 140 141 136 134 126 113 104 102 103 103 100 95 90 88 87 89 90 93 100 105 107 107 104 94 85 74 62 51 48 54 64 75 82 81 85 86 84 83 78 75 73 69 66 69 72 72 73 74 75 76 77 78 79 79 79 82 86
205 209 201 197 286 275 279 266 242 250 291 349 116 165 134 109 101 100 102 108 125 128 138 148 105 86 57 50 65 87 101 100 121 139 138 156 153 146 146 139 143 142 135 141 132 116 112 107 105 105 100 97 92 88 87 88 90 93 101 106 105 105 105 102 95 81 62 49 48 55 61 69 82 85 86 88 89 89 85 82 80 78 74 72 74 75 75 77 78 79 80 81 81 81 82 85 89
197 214 231 240 270 287 311 270 258 234 316 358 113 137 114 111 114 112 110 110 123 133 150 153 100 127 89 63 79 95 111 117 128 143 147 160 159 147 145 141 144 138 136 152 136 124 121 112 108 106 103 101 95 91 90 90 94 95 101 107 106 105 104 107 100 78 56 48 53 59 66 73 81 84 87 95 96 93 92 91 87 83 77 72 75 77 75 76 78 78 79 80 81 81 82 85 91
181 185 226 258 261 257 277 259 263 226 320 355 100 125 108 111 121 118 118 115 105 147 156 138 131 127 108 108 98 100 115 126 144 160 158 158 158 147 144 143 144 138 144 164 143 135 129 118 112 107 105 103 100 95 93 93 94 97 101 106 108 110 109 107 96 73 55 52 58 67 79 79 81 86 87 100 105 100 98 96 91 86 78 75 78 79 77 79 79 79 80 81 81 81 82 85 92
188 198 207 236 244 198 248 262 271 162 328 6 63 95 114 123 130 127 137 143 144 169 169 159 164 143 112 121 101 119 129 141 167 173 162 157 155 146 144 145 144 142 154 167 147 143 138 127 117 110 109 105 105 99 95 94 93 97 100 103 104 109 110 106 95 81 73 68 66 78 92 88 88 91 88 101 111 108 104 98 91 88 83 80 81 80 80 81 82 82 82 83 84 84 84 86 91
198 222 222 226 250 206 225 255 264 126 119 88 63 86 115 133 138 137 152 143 152 166 171 178 194 199 128 105 97 142 145 157 182 170 163 159 153 146 145 148 148 151 164 167 152 151 143 136 126 115 114 109 109 104 99 95 93 97 99 102 100 100 101 99 97 91 87 79 77 89 98 95 93 94 92 101 109 110 110 101 91 88 87 85 84 83 82 81 82 83 84 85 87 87 87 87 90
219 222 240 247 253 229 211 248 256 116 102 96 93 103 118 141 145 147 155 131 150 157 161 173 184 153 132 107 107 148 155 163 186 171 166 161 153 147 146 154 157 157 167 167 162 160 150 144 135 122 118 114 111 108 103 97 95 96 97 100 98 96 93 91 93 92 90 85 86 94 99 98 95 93 94 101 107 110 110 104 96 90 87 88 86 85 84 82 82 83 85 87 88 89 89 89 90
228 217 236 258 243 247 216 228 218 123 106 97 99 118 127 149 154 152 146 131 147 135 144 161 164 177 132 108 119 149 169 163 181 173 167 163 154 147 147 161 162 160 168 167 166 164 159 154 143 133 125 120 116 111 107 101 99 97 98 98 96 95 90 89 89 90 91 90 92 94 95 96 97 93 92 96 102 106 104 98 92 88 86 85 86 87 86 84 82 83 86 88 89 91 91 92 92
229 205 206 236 228 237 230 226 188 115 115 127 117 140 145 154 167 159 138 134 144 127 154 172 150 185 140 102 131 160 170 153 171 176 169 165 154 147 151 165 165 163 172 171 167 164 168 167 155 146 135 128 122 115 112 107 105 101 100 98 95 94 91 89 87 89 92 94 94 94 94 96 97 94 93 93 95 97 95 91 87 85 85 84 86 87 87 86 83 83 85 88 90 92 93 94 94
235 214 185 227 244 245 258 253 120 106 125 158 139 156 159 158 180 164 137 138 150 141 176 180 152 181 120 100 139 160 158 150 168 178 168 162 154 151 156 164 166 170 175 174 171 166 172 176 168 159 149 142 133 124 119 114 111 106 102 99 98 95 92 89 85 90 94 95 95 95 97 99 99 96 97 100 97 95 92 89 85 83 83 84 86 87 88 87 85 84 84 87 89 92 95 96 97
237 289 223 213 255 259 272 301 103 125 164 140 132 153 157 160 182 158 142 148 155 144 160 170 168 179 118 116 148 159 156 158 172 178 167 160 156 157 161 163 168 178 176 172 176 173 175 179 177 172 165 159 150 140 130 124 118 112 107 102 100 97 93 90 87 90 93 94 96 98 101 105 105 101 100 103 103 100 95 90 85 82 80 80 83 86 88 86 86 86 85 87 88 91 95 99 101
239 319 305 220 251 247 261 256 156 163 152 125 138 150 147 154 173 148 135 135 120 131 146 167 176 155 117 122 166 170 163 166 175 178 167 159 155 158 167 168 170 183 176 170 180 181 181 182 181 179 178 173 167 160 148 141 132 124 118 110 105 103 99 95 92 90 93 96 99 100 104 108 112 111 108 106 106 103 98 94 89 84 81 80 79 83 87 87 87 87 87 88 90 92 94 100 104
237 307 312 250 252 244 236 202 169 163 136 135 150 149 138 143 159 129 94 106 122 140 142 171 169 113 79 95 157 174 167 168 177 176 166 159 156 161 175 174 172 185 178 174 181 184 187 189 187 182 185 185 181 181 172 167 156 148 138 126 121 115 109 105 101 96 96 97 104 106 107 111 116 119 117 113 111 106 101 97 93 88 86 84 80 82 85 88 90 91 92 92 94 96 98 101 105
230 267 290 253 243 235 187 197 168 136 129 138 157 153 138 146 159 136 105 110 133 148 125 136 167 142 107 115 153 175 169 173 178 173 165 162 163 170 176 172 175 187 181 179 182 184 188 193 196 189 194 190 182 192 187 187 182 173 170 157 146 136 128 120 112 104 100 99 104 111 111 113 118 123 124 121 119 114 107 100 97 91 91 89 86 85 83 86 89 92 96 96 97 100 103 105 110
199 181 232 236 234 225 224 217 159 130 138 152 166 162 144 149 167 159 141 131 132 144 140 148 174 164 130 134 158 178 178 180 182 176 170 169 173 177 174 172 182 188 183 181 181 186 189 193 199 195 199 193 182 198 196 193 197 189 190 192 184 174 157 141 132 120 112 106 104 112 118 117 121 128 128 126 130 127 121 114 108 99 94 91 89 88 86 90 86 88 95 95 97 101 106 108 115
198 204 215 227 244 245 21 41 95 117 151 158 165 170 158 157 169 167 171 165 147 151 167 168 171 163 149 151 168 185 184 184 184 182 178 177 181 183 178 178 185 189 187 185 182 187 190 193 196 195 199 196 192 204 210 207 209 205 205 211 207 204 199 180 166 152 141 125 118 125 121 117 118 125 134 145 159 162 154 149 132 118 103 88 85 84 85 92 86 85 85 79 85 94 106 113 121
212 225 233 232 247 296 57 67 67 106 144 150 159 175 170 159 165 170 182 174 167 184 181 175 177 180 172 166 179 190 185 186 185 184 184 183 184 186 184 184 187 190 192 190 187 188 192 197 196 195 199 198 201 209 216 216 220 223 217 218 216 214 215 207 198 191 180 164 166 161 121 114 118 123 158 175 186 203 208 216 207 193 168 77 52 45 76 85 86 86 65 46 40 35 66 102 128
209 213 227 271 281 0 75 88 85 110 140 147 153 166 159 150 159 170 182 176 178 204 197 190 190 193 191 180 189 195 189 188 184 185 189 189 187 186 188 190 191 191 195 194 191 192 195 199 197 197 199 200 204 211 217 218 224 235 229 224 220 213 216 220 215 208 203 188 200 197 158 178 168 146 194 221 225 226 235 255 257 257 274 296 307 309 319 342 352 4 15 3 349 348 5 37 12
229 235 238 341 355 21 64 94 103 111 138 142 145 157 149 144 157 172 185 195 180 198 205 205 198 199 203 193 195 198 195 193 188 189 192 193 190 185 188 195 194 190 197 199 194 195 196 198 199 198 201 202 204 210 218 221 222 229 231 229 226 217 214 223 224 219 216 200 211 215 185 198 205 187 203 247 258 247 237 260 264 243 235 272 286 292 303 313 316 314 317 311 307 321 340 348 336
223 250 239 356 31 53 34 95 109 110 140 144 151 160 151 147 164 181 193 199 152 172 187 192 194 198 205 198 196 198 199 198 196 196 196 197 191 186 188 196 201 196 200 204 199 199 197 196 200 201 202 204 205 208 214 220 218 216 224 230 231 230 223 222 221 222 224 211 218 226 207 210 220 215 209 232 262 277 279 282 279 261 250 285 289 293 303 304 302 301 299 299 301 311 317 314 318
209 251 233 90 75 91 27 144 117 99 130 148 165 158 154 167 174 185 200 192 144 154 162 168 181 190 197 196 196 200 202 202 202 201 200 200 195 191 189 196 208 207 206 210 206 204 203 200 202 204 203 203 205 207 210 214 214 212 219 228 232 236 238 233 222 220 227 220 222 229 222 221 228 230 223 227 246 268 284 294 292 292 299 301 296 296 301 299 297 298 300 303 304 306 303 300 303
214 256 143 96 84 100 107 155 134 104 107 135 158 153 156 178 169 178 199 196 180 197 171 168 171 176 188 194 196 201 202 202 204 204 201 201 200 196 191 196 208 212 213 214 212 209 209 207 207 208 205 204 206 206 209 212 212 214 218 223 232 237 241 244 238 231 234 229 227 231 230 228 232 236 233 232 238 247 259 272 276 280 289 292 294 297 295 292 294 297 300 302 302 301 297 294 293
210 208 96 106 93 110 108 114 137 129 121 129 145 144 138 170 166 190 208 205 201 209 194 179 175 175 186 194 198 205 208 205 205 206 204 202 201 201 197 197 202 209 214 215 215 210 209 210 209 211 210 208 208 207 210 213 212 216 218 218 228 237 241 248 249 243 242 239 233 233 235 234 236 240 240 237 236 243 249 257 264 267 273 280 286 289 288 287 288 292 294 297 298 298 296 294 292
190 160 104 110 98 112 119 104 132 147 162 160 166 140 103 150 171 234 218 203 203 202 192 186 184 186 191 199 206 210 212 213 210 208 208 205 203 204 203 200 200 206 213 216 218 212 207 212 211 210 213 211 211 212 211 213 216 219 222 220 226 235 241 247 249 247 247 247 243 240 238 236 238 241 245 246 240 243 249 254 262 265 268 270 274 279 283 285 285 287 289 293 294 295 296 294 293
155 144 111 117 111 109 126 113 142 163 165 193 203 101 93 105 189 240 204 189 202 201 194 192 187 189 191 200 210 212 214 215 216 213 213 212 210 209 207 205 202 204 213 219 221 216 209 213 214 211 213 213 213 215 214 214 218 221 224 224 227 234 237 240 245 249 250 250 249 248 246 240 241 244 248 255 252 249 251 254 260 264 267 267 268 271 274 278 280 284 285 288 292 293 295 294 293
156 157 135 137 139 135 163 139 160 188 178 189 184 51 160 182 217 228 197 184 196 196 198 199 194 191 190 197 204 209 212 213 216 217 219 220 219 217 214 215 212 211 218 223 224 222 215 214 216 216 218 219 215 216 219 219 219 221 225 226 229 233 235 240 244 250 254 252 249 252 254 247 243 247 250 257 259 257 255 255 258 263 268 268 268 268 269 272 274 278 281 283 287 289 291 292 293
166 185 183 146 163 194 170 144 158 180 187 187 157 21 222 213 220 220 201 193 192 187 194 200 202 199 195 199 204 209 209 211 217 219 222 223 223 224 222 224 224 223 224 226 227 227 223 218 218 220 223 227 222 219 222 225 224 224 225 226 231 235 237 242 245 250 258 258 252 252 256 252 251 249 247 255 261 263 260 257 260 265 270 270 270 269 268 269 269 273 276 279 282 285 287 288 290
170 201 214 164 163 183 162 147 157 160 205 190 151 270 239 230 211 201 195 198 192 188 192 196 203 203 202 205 209 215 213 214 221 223 224 224 225 226 225 227 228 228 227 227 230 231 229 225 224 225 226 230 231 226 228 231 232 231 229 227 232 238 238 241 245 248 256 260 257 256 257 260 267 256 244 253 260 263 263 262 263 265 268 269 268 269 268 269 270 272 275 277 281 283 285 284 286
198 192 200 188 171 156 150 161 168 155 169 183 165 253 249 345 160 172 181 190 188 192 196 196 202 202 204 208 211 218 219 221 226 227 227 226 227 227 225 227 228 228 226 227 230 231 232 230 230 231 230 232 235 237 236 234 234 236 236 231 234 241 240 239 244 248 253 256 254 258 260 261 267 257 247 251 251 254 262 268 269 264 266 266 264 266 267 268 271 274 277 279 282 286 287 287 288
227 199 175 185 184 164 156 219 196 156 128 184 223 258 233 337 152 167 177 183 187 194 199 199 202 204 203 207 213 217 219 223 225 227 227 226 226 227 226 226 228 229 228 227 229 230 232 233 233 234 235 236 238 241 241 236 232 234 239 238 235 238 241 241 244 248 254 252 248 252 257 258 257 246 242 246 246 252 261 269 272 268 267 265 261 261 264 269 272 275 278 281 284 288 290 290 290
224 202 189 194 185 169 155 200 205 171 152 199 209 239 261 210 165 182 187 186 193 201 204 201 199 203 204 207 214 217 218 223 226 225 225 226 225 226 225 225 227 228 228 229 230 231 233 234 234 234 236 237 238 240 242 241 235 230 234 239 239 238 240 242 243 246 250 249 245 242 246 255 254 236 233 245 253 257 257 261 270 270 266 262 261 263 268 271 273 275 278 282 285 287 289 289 289
182 179 220 217 186 184 171 153 178 171 194 215 181 221 258 240 170 193 199 191 195 206 210 206 201 202 205 208 213 218 221 225 230 229 226 227 226 226 226 225 225 227 228 229 230 232 233 235 235 235 236 235 237 239 240 241 237 229 226 230 236 240 242 242 241 243 244 245 244 237 239 249 246 230 235 247 252 256 256 258 264 267 265 264 266 270 271 272 274 278 281 284 286 288 287 287 287
186 182 203 220 181 186 165 113 166 161 173 216 192 210 240 239 209 198 200 195 196 205 213 215 211 210 211 213 216 220 224 228 233 233 231 229 228 228 227 225 225 226 228 229 230 231 233 235 234 234 236 236 236 237 238 238 236 231 228 228 232 239 245 245 242 243 245 247 247 240 241 246 242 235 240 246 252 258 258 259 261 263 265 266 269 270 271 272 272 274 279 284 286 286 285 285 286
228 184 191 214 183 162 78 89 159 169 160 213 219 229 241 239 232 203 191 193 198 201 206 213 214 215 215 215 218 223 229 233 234 235 235 233 230 229 228 226 226 227 227 228 229 230 231 235 235 234 236 237 236 236 238 239 239 238 238 238 239 242 247 248 245 244 247 251 253 248 247 251 253 253 251 248 256 258 255 256 259 262 265 267 270 271 272 274 273 272 274 278 283 284 286 288 288
321 182 171 204 187 136 30 81 160 185 130 217 221 234 248 241 245 223 185 181 201 200 196 204 208 213 216 217 220 225 232 235 232 231 233 236 234 229 228 227 226 227 227 228 229 230 231 234 236 236 236 238 238 238 240 242 244 245 245 246 246 246 249 253 252 247 246 250 253 252 251 250 252 256 254 248 251 253 253 257 259 262 264 267 272 273 274 274 274 274 271 273 281 284 286 288 287
322 336 136 185 182 116 53 51 130 148 128 254 220 224 251 249 247 243 201 191 202 199 198 204 207 211 215 218 222 225 230 233 231 230 231 234 235 231 229 229 229 229 229 230 231 231 231 232 234 236 238 238 239 239 241 242 244 245 246 247 248 248 251 255 256 251 247 252 256 256 253 249 246 248 251 248 247 249 253 256 257 260 262 266 271 271 272 271 271 274 273 275 279 280 282 284 284
251 258 148 180 168 141 179 212 140 112 143 29 6 304 268 267 260 254 232 228 220 205 207 212 212 214 216 218 224 228 228 229 230 230 231 233 233 233 233 232 231 230 230 231 231 231 231 231 233 237 240 240 239 239 240 242 243 243 242 243 245 248 249 249 250 248 246 251 259 263 261 256 250 250 253 254 253 251 251 253 254 256 259 263 266 265 266 268 272 276 276 277 279 281 283 283 283
238 223 235 219 171 151 125 148 136 24 11 96 10 320 281 238 233 245 232 231 230 218 214 216 217 218 219 220 223 227 229 229 230 230 232 233 233 234 235 234 232 231 231 231 231 232 233 234 237 241 242 242 240 238 238 238 239 238 236 236 240 245 246 246 248 250 248 249 255 262 264 260 256 255 256 255 253 250 251 254 255 256 257 258 259 261 263 267 272 275 276 278 280 283 285 285 281
249 219 211 243 128 127 112 128 130 62 312 233 123 294 284 225 212 230 221 215 222 216 211 214 218 218 217 219 221 223 225 226 229 232 235 238 237 236 234 232 231 231 231 233 234 235 236 238 240 241 242 241 240 237 236 236 236 236 236 236 241 246 249 252 254 256 254 251 250 254 257 258 257 257 257 257 255 252 251 252 252 255 258 259 261 263 266 269 268 269 275 280 282 283 284 283 281
233 240 209 125 95 114 127 147 145 126 231 275 119 177 267 284 238 240 206 193 214 210 208 215 217 216 217 220 223 223 222 221 222 227 232 236 238 238 234 232 232 233 234 234 235 235 236 238 238 239 240 240 239 237 234 234 234 235 236 238 242 247 250 253 256 257 255 251 247 245 248 255 260 262 265 268 267 264 261 260 260 262 264 266 269 271 273 272 267 263 267 272 274 275 276 279 281
211 279 300 132 125 131 145 153 164 167 137 359 343 183 267 294 279 265 153 164 213 215 221 228 223 223 224 227 230 229 228 225 224 226 229 233 237 239 238 236 236 237 237 236 236 236 236 237 237 237 238 238 238 236 234 234 234 233 234 236 238 242 247 249 251 253 251 249 246 245 246 251 258 263 268 273 275 277 276 274 274 274 274 275 275 277 278 276 271 266 264 265 267 271 276 283 284
222 245 5 118 134 140 148 147 155 95 72 293 253 190 279 269 250 229 133 159 220 224 222 227 227 227 227 230 233 234 233 231 231 232 232 234 237 241 242 241 239 238 238 238 238 239 238 239 238 237 236 236 236 234 233 233 233 231 232 235 236 239 243 244 246 247 248 248 248 249 251 253 258 264 269 273 277 280 282 281 280 279 279 278 278 278 279 278 275 272 270 270 272 276 280 284 284
197 173 71 61 70 94 126 139 126 87 72 236 224 184 206 278 251 210 179 199 222 228 225 223 224 223 223 224 225 227 228 229 231 233 234 236 237 240 242 242 241 240 239 239 239 239 239 238 238 237 236 235 234 232 231 231 231 229 230 234 236 238 240 241 243 243 242 242 244 247 251 255 261 266 270 273 276 278 281 283 283 282 281 279 279 279 279 280 279 279 278 278 279 280 280 281 282
140 132 82 65 47 54 62 102 104 96 249 234 220 190 184 271 261 196 186 215 214 220 233 228 207 202 204 208 210 215 220 224 228 230 233 235 236 238 240 241 241 240 239 238 238 238 238 238 238 237 236 235 233 229 227 228 228 228 230 234 236 237 239 238 237 237 235 235 239 245 250 257 264 271 274 277 279 281 282 283 284 285 284 282 281 282 282 283 284 285 285 284 284 284 285 286 286
118 118 113 85 36 45 29 11 95 158 242 249 289 310 170 227 253 222 219 231 205 207 221 198 155 162 179 194 205 214 220 226 231 231 232 234 236 237 238 240 240 238 237 236 236 236 236 237 237 235 233 232 230 226 223 224 225 226 229 233 235 235 235 232 229 227 226 229 234 243 252 261 270 274 277 280 283 286 286 286 286 286 287 288 288 288 288 289 289 290 289 289 288 289 289 290 290
102 135 132 119 95 85 81 231 173 210 240 252 297 355 260 229 249 262 267 258 219 213 214 176 158 163 179 198 214 223 227 233 237 238 238 236 237 238 238 241 240 238 235 232 231 231 232 234 233 232 231 230 227 223 219 220 222 224 227 230 230 228 226 222 219 216 217 220 226 242 259 272 281 284 288 292 294 298 301 299 296 295 295 296 296 296 297 297 298 298 296 295 293 293 292 291 291
182 159 145 148 148 136 194 196 195 221 256 289 282 311 268 267 261 245 248 251 238 224 214 182 165 172 191 211 228 240 244 247 247 246 246 243 241 238 237 239 239 237 232 229 227 227 229 230 230 229 228 227 224 219 216 216 218 221 224 224 221 219 215 208 205 207 209 213 224 248 271 286 299 304 306 307 307 310 312 311 309 307 307 306 305 305 304 304 304 304 303 302 301 300 298 295 292
193 168 140 161 170 162 185 180 186 198 204 320 301 257 193 205 249 239 237 244 239 221 212 204 196 197 205 218 233 249 260 269 268 261 256 253 249 242 236 234 234 232 230 229 227 227 228 228 227 225 224 222 218 214 213 213 215 218 217 214 210 207 202 197 199 203 206 221 243 272 290 296 302 304 307 309 311 314 315 315 314 311 308 307 307 307 306 307 307 307 306 307 307 306 303 300 298
225 152 121 180 195 147 137 168 174 155 106 288 237 246 212 205 271 276 252 212 210 220 225 227 228 224 219 223 231 241 254 269 277 273 262 255 251 244 237 234 231 229 228 228 225 223 223 223 221 220 219 217 212 209 210 211 211 210 207 203 200 196 195 196 197 199 210 235 260 279 284 287 294 301 305 309 311 314 314 313 313 309 306 304 304 304 305 307 307 307 307 307 307 306 304 306 308
181 135 156 203 168 115 115 220 52 104 139 229 187 253 278 281 291 277 250 225 216 221 232 236 235 231 227 228 233 239 247 256 266 271 263 254 251 241 233 228 226 224 222 220 218 217 217 215 214 212 210 209 207 207 207 205 203 200 197 194 191 191 194 195 196 205 222 243 260 268 273 283 295 301 305 308 311 312 310 309 309 307 305 303 303 303 303 305 305 305 306 306 305 305 306 310 311
117 153 190 177 72 76 120 182 17 88 233 239 176 215 259 250 272 289 247 230 232 219 225 238 236 231 229 232 238 244 247 247 252 260 256 247 242 232 224 217 214 214 213 211 209 208 208 208 208 206 204 203 203 202 199 197 195 193 190 188 189 192 194 196 203 215 231 248 257 265 275 288 296 300 304 307 308 307 305 305 304 303 303 303 303 303 301 302 302 304 305 303 303 305 307 309 310
117 165 170 117 129 235 142 177 189 162 221 263 225 220 229 200 221 295 243 224 238 225 210 218 223 222 226 233 238 238 236 236 241 249 245 234 225 220 215 210 208 207 206 205 203 202 202 203 203 202 201 199 197 196 193 192 190 188 187 188 191 193 195 202 211 221 236 249 258 269 280 287 292 297 301 301 300 299 299 299 300 300 300 300 298 298 298 299 300 300 300 299 302 306 308 311 312
40 82 75 76 166 179 166 192 192 156 195 255 255 225 241 224 210 225 225 219 225 222 208 208 217 222 230 237 236 231 230 232 236 238 233 224 216 213 210 207 205 203 202 201 200 200 200 200 199 197 197 195 193 192 191 188 186 185 188 190 192 195 199 208 216 226 239 249 259 271 278 285 292 294 294 293 292 293 294 295 296 296 296 295 294 295 296 297 297 297 297 299 304 308 310 314 315
152 121 142 160 161 124 130 236 195 143 168 231 246 246 259 247 208 207 220 222 211 195 173 187 211 223 237 245 241 235 232 230 232 230 224 218 212 209 206 204 203 202 201 200 199 200 199 200 199 196 194 192 191 190 188 186 186 187 189 191 194 199 205 213 222 231 242 252 261 270 278 285 290 290 288 288 289 289 291 292 293 293 292 292 291 292 292 293 295 297 301 304 307 311 315 319 322
174 174 176 180 172 137 140 234 208 160 175 197 209 254 265 254 221 195 207 208 185 162 148 174 207 222 235 244 240 236 232 227 226 224 220 215 209 207 204 201 202 202 201 200 200 200 199 199 197 195 193 192 190 188 187 187 188 190 192 194 198 205 211 218 227 235 244 254 262 272 279 283 285 285 286 287 287 287 288 289 288 287 287 287 287 289 291 294 297 300 305 309 314 321 328 334 338